Theta_e
311 310 310 310 310 310 311 311 311 311 312 312 313 313 313 314 312 305 302 309 313 317 313 304 303 302 301 300 303 302 294 290 291 292 294 299 299 301 304 303 306 310 310 313 322
309 309 309 309 309 309 309 309 309 309 309 310 310 311 313 312 303 302 313 316 316 315 304 301 299 299 297 297 299 297 292 291 295 296 295 298 299 300 301 302 303 308 313 318 321
308 308 308 308 308 309 308 308 309 308 308 309 309 309 311 309 297 300 312 314 313 312 305 302 301 297 294 296 296 296 291 294 294 296 297 297 297 299 298 297 301 303 310 317 319
307 307 307 307 308 308 308 308 308 309 309 309 309 309 310 302 284 303 310 310 310 308 303 300 297 293 292 291 294 291 294 295 295 296 296 295 297 296 297 298 302 303 310 316 317
307 307 307 307 308 308 308 308 308 308 308 308 308 308 304 294 293 304 308 306 303 303 300 298 294 293 289 290 290 290 291 293 294 293 295 295 295 295 296 300 301 301 303 307 314
307 307 307 307 307 307 308 308 308 307 307 307 308 306 298 286 302 304 303 302 301 299 298 300 296 296 292 291 290 291 291 292 292 292 292 291 293 293 296 300 300 299 300 302 306
306 306 306 306 306 307 307 307 307 306 306 306 307 303 295 291 302 303 303 302 302 300 295 300 300 297 295 290 293 292 289 291 292 292 292 293 290 289 296 298 296 298 299 300 302
306 306 306 306 306 306 306 305 305 305 305 304 305 300 289 300 303 301 304 302 303 302 300 302 302 297 294 295 292 288 287 285 291 291 292 291 286 294 296 296 295 296 298 298 299
305 305 305 306 306 306 305 305 304 305 304 303 299 295 287 301 294 298 300 297 301 301 301 302 299 293 293 287 284 286 282 284 285 290 290 289 288 294 293 294 294 295 295 295 296
306 306 306 306 306 305 304 304 301 299 299 301 297 289 292 288 293 295 299 299 298 298 296 295 293 288 287 284 277 280 280 282 282 285 286 287 287 291 293 292 292 293 294 295 294
306 306 306 305 305 304 301 297 291 289 293 286 287 287 290 294 296 294 297 295 296 294 286 291 286 282 284 285 285 283 281 280 282 285 284 284 285 287 290 290 290 291 292 293 294
305 305 305 305 305 302 299 291 291 292 284 289 289 289 292 294 288 293 297 288 287 283 286 285 282 286 287 286 285 284 281 281 284 286 285 284 283 287 289 290 291 291 292 293 294
305 304 304 305 302 299 294 293 298 296 284 285 287 288 291 292 288 289 294 290 285 282 283 280 283 287 284 284 282 282 280 280 280 284 286 284 281 284 288 290 292 292 293 294 294
304 304 303 303 294 296 292 297 298 295 279 278 284 291 293 292 286 294 295 290 285 281 284 281 285 284 283 281 283 278 285 284 282 280 276 283 274 282 285 286 289 291 293 293 294
303 303 303 301 296 292 295 297 294 289 268 279 282 295 291 284 286 286 294 290 282 281 283 279 282 282 281 281 284 280 284 282 282 280 279 279 276 280 284 283 286 290 291 290 290
304 303 303 299 298 296 298 294 290 277 266 275 282 281 281 282 283 286 286 291 289 283 283 282 286 284 283 285 285 285 283 282 281 279 273 278 277 278 281 283 285 288 287 289 290
303 303 300 299 292 298 295 289 277 270 276 275 276 280 279 278 279 281 279 279 277 274 274 278 279 284 284 281 284 283 279 272 271 271 270 278 276 279 284 285 285 286 287 287 289
303 298 295 296 297 298 290 283 269 268 273 279 278 278 275 278 278 278 277 276 280 278 275 272 270 279 284 281 276 278 278 273 266 268 271 277 273 278 283 284 285 285 285 286 287
298 295 293 295 297 294 286 274 272 272 277 276 277 273 273 277 276 276 276 276 278 279 273 272 272 280 282 282 280 277 274 280 273 275 271 274 278 283 283 281 282 282 284 284 286
295 291 290 294 297 289 280 274 273 277 279 278 271 273 270 274 273 274 274 278 277 278 276 276 270 278 279 280 281 279 280 272 274 265 265 271 273 276 279 279 280 282 283 284 286
291 286 290 295 293 284 275 273 275 279 280 276 274 273 274 273 273 273 274 278 280 280 279 276 275 274 277 276 275 276 274 275 275 272 266 265 271 281 280 281 281 282 283 284 285
286 281 289 294 281 276 274 272 280 279 282 279 279 277 275 275 274 273 274 277 282 281 277 280 276 271 274 279 279 278 276 276 270 268 272 270 270 282 282 282 283 283 284 284 286
285 283 289 291 275 274 274 275 279 278 278 278 277 279 279 275 272 275 276 282 282 280 278 279 275 269 270 274 276 274 277 277 276 274 269 268 270 282 282 281 283 283 284 285 285
282 278 281 284 282 277 274 275 274 280 278 279 278 279 277 274 277 274 275 279 282 281 284 283 276 272 268 271 273 271 274 276 275 270 270 271 273 277 279 280 282 283 284 284 284
282 280 281 275 277 279 279 275 272 273 278 279 276 277 275 271 273 272 276 277 279 281 281 280 273 275 275 276 276 275 274 275 273 273 270 272 273 277 279 280 282 283 284 284 283
281 279 277 278 275 277 278 274 274 275 275 274 274 276 277 273 274 272 275 275 275 278 278 280 272 274 272 275 275 273 275 275 275 275 274 274 274 281 283 283 282 283 283 283 283
285 283 282 280 275 275 276 277 274 278 278 279 278 277 275 276 279 280 280 280 279 276 275 275 273 271 267 273 272 269 273 275 275 277 276 272 277 282 281 281 282 283 283 283 283
Wind_Speed
16 17 18 17 17 18 18 19 19 19 19 20 20 20 20 23 23 7 5 6 9 14 10 6 1 4 2 3 2 2 6 9 8 8 3 5 7 3 1 3 3 1 3 4 10
16 16 17 17 17 17 18 18 18 18 17 18 19 20 20 22 13 2 9 10 12 11 6 8 3 4 3 3 4 8 7 11 3 5 2 4 4 4 5 5 5 6 6 7 10
15 16 16 16 17 17 18 18 19 18 18 19 18 18 18 17 5 3 11 14 17 8 3 3 5 3 5 3 5 4 11 8 3 5 3 1 3 1 3 5 3 2 7 10 11
15 15 16 16 17 18 19 19 20 20 20 21 19 17 17 5 5 4 11 17 15 13 2 3 2 2 3 6 3 7 6 4 0 2 3 5 2 6 7 7 4 4 4 7 10
13 14 16 17 17 18 19 20 20 20 20 20 18 13 6 4 5 6 14 16 10 10 6 2 4 3 6 2 2 7 4 3 2 3 6 3 8 11 8 12 7 4 4 6 8
14 15 16 18 19 20 21 21 21 20 20 18 16 4 2 4 4 11 16 12 7 4 5 4 1 1 2 3 5 1 4 6 3 4 4 6 10 6 9 15 16 10 12 11 10
15 15 16 17 19 20 23 23 22 20 16 15 11 3 3 9 9 12 12 6 5 4 3 1 2 4 2 2 1 1 8 9 10 6 5 4 15 14 17 17 15 15 14 12 12
15 16 17 18 19 20 22 25 23 17 10 13 5 2 3 4 9 9 11 4 3 2 4 3 1 2 2 1 2 5 4 13 4 9 8 9 25 10 10 15 15 15 13 11 12
15 16 17 18 19 21 22 25 16 12 16 4 2 3 3 7 8 10 8 9 5 3 2 2 2 3 3 5 6 6 16 16 11 9 4 17 21 12 2 8 10 8 5 5 7
16 17 18 20 21 19 22 22 8 6 12 2 2 3 3 10 11 14 8 6 3 0 3 2 3 5 4 8 15 12 11 11 15 3 7 16 19 13 12 12 13 14 13 11 11
17 18 19 20 22 17 14 5 6 4 9 6 9 4 8 15 3 7 5 8 2 4 4 2 5 7 6 9 12 10 9 11 4 4 9 14 18 16 13 15 16 17 18 18 16
14 16 19 21 21 13 7 7 6 4 7 2 5 6 5 6 5 13 9 4 4 7 6 5 9 4 4 6 9 11 14 17 13 10 13 17 25 22 21 23 22 20 20 21 20
13 15 16 18 11 4 4 7 5 2 4 5 3 4 4 3 4 10 10 5 6 7 8 9 4 5 8 6 9 11 13 12 13 11 13 15 24 21 17 19 19 20 19 19 18
12 12 15 18 2 6 3 5 5 3 1 9 6 4 5 4 1 3 3 3 4 8 9 4 3 7 10 12 10 15 5 10 12 9 8 2 10 10 6 10 11 12 10 10 10
11 12 13 6 5 4 5 8 2 3 2 13 5 5 7 6 8 1 1 2 7 8 4 6 7 8 8 7 8 8 1 5 9 12 12 16 10 3 2 9 8 8 2 2 5
12 12 11 2 2 3 8 4 2 2 2 4 4 11 13 11 7 6 4 1 2 4 5 9 3 5 6 7 8 3 7 9 6 7 10 16 13 11 10 10 6 4 5 6 5
11 11 4 1 4 8 6 1 1 3 2 5 7 10 17 8 7 6 12 9 5 5 6 8 10 2 4 6 3 8 6 5 6 7 10 3 10 16 6 3 2 5 5 6 7
11 5 4 2 6 5 2 2 3 1 4 4 5 15 5 8 6 11 9 9 5 6 8 7 7 5 7 4 3 3 5 6 7 8 6 3 7 7 6 8 10 9 6 7 9
4 2 2 5 5 3 2 2 3 5 1 5 9 2 3 2 6 7 5 8 5 5 5 4 6 2 6 2 3 3 6 4 7 10 9 9 9 10 8 9 8 8 8 8 10
1 1 1 6 4 3 2 1 2 3 1 1 3 1 4 7 7 5 5 2 5 1 1 3 7 7 3 2 8 8 3 5 4 6 11 10 12 10 5 7 5 4 8 7 8
2 2 1 5 1 3 1 4 5 6 3 4 4 4 7 5 4 5 6 10 10 6 4 2 5 6 2 8 12 6 7 6 4 6 8 12 9 3 3 4 3 5 6 8 11
2 3 1 2 1 1 2 5 3 4 5 6 5 10 8 7 6 5 7 5 9 3 10 5 4 8 15 11 6 10 14 13 9 10 8 12 14 15 13 14 11 12 7 11 13
3 1 1 1 4 4 2 4 5 5 5 6 5 9 6 5 6 8 10 6 14 8 5 4 5 7 6 5 4 8 14 14 8 6 15 16 16 12 15 10 12 14 18 17 19
3 3 1 2 2 4 5 6 5 7 7 6 6 8 8 6 10 8 13 10 5 15 18 13 8 13 15 12 2 6 9 13 14 9 16 17 25 23 23 24 21 16 15 17 17
3 5 2 6 7 12 9 6 6 5 9 7 4 14 9 5 8 14 16 14 15 16 11 6 11 14 16 17 22 22 19 16 14 21 19 22 24 24 24 25 24 20 20 18 18
4 4 2 2 3 12 12 10 17 12 9 7 12 13 13 11 14 18 19 14 12 9 7 4 10 9 15 19 20 21 20 22 27 28 25 27 28 28 26 25 26 24 22 19 19
2 2 3 9 7 7 10 15 16 10 12 17 13 12 13 23 17 18 17 17 16 16 16 12 9 8 18 19 17 15 21 26 27 26 25 23 27 27 25 25 24 24 19 18 19
Wind_Direction
18 11 7 5 1 1 358 355 352 349 342 337 340 339 340 337 332 331 38 325 330 334 322 307 298 353 242 139 143 202 224 230 227 191 210 159 201 158 39 204 150 101 21 57 126
10 9 7 3 360 360 357 350 348 344 340 337 335 332 339 336 327 22 359 351 344 342 338 346 353 348 182 169 172 221 227 224 228 209 243 177 218 163 213 185 181 165 111 123 139
12 8 4 358 353 354 350 345 342 340 337 333 333 331 331 330 289 111 3 5 1 340 294 299 301 300 202 195 182 180 238 228 221 225 265 214 222 271 212 224 217 195 146 146 159
8 2 360 356 353 350 345 342 339 337 333 328 325 326 332 306 288 52 13 359 351 353 320 308 288 242 235 209 171 230 232 224 279 208 201 239 309 249 255 252 77 74 85 165 182
8 4 358 353 350 346 340 336 335 331 329 328 321 318 339 350 272 5 349 342 335 360 12 334 251 226 234 221 209 231 224 216 272 275 248 264 239 252 248 258 245 269 237 215 207
8 5 0 355 350 344 339 333 328 326 327 332 335 324 317 275 9 338 332 327 333 329 328 327 271 244 219 232 243 43 273 269 276 248 262 242 249 217 230 249 252 245 252 241 230
8 0 355 351 347 341 334 328 324 327 323 328 348 119 226 266 334 329 321 317 305 278 263 265 334 242 166 185 3 286 271 257 234 239 247 203 247 233 243 246 239 240 243 251 251
360 355 353 352 347 340 334 324 329 325 324 331 29 107 273 292 312 346 350 350 8 260 264 306 343 81 268 341 190 233 229 256 201 215 223 213 258 250 228 248 248 248 253 256 260
358 355 354 351 344 341 333 322 338 350 342 15 94 347 22 331 3 330 326 331 339 53 212 122 207 250 181 226 241 212 259 243 271 209 244 216 264 260 339 250 264 260 259 277 276
352 350 349 345 344 345 333 326 6 35 354 121 68 222 29 330 325 321 313 331 350 341 126 173 177 212 207 213 234 249 237 244 252 142 239 252 255 263 265 288 283 286 282 269 264
352 349 347 343 344 350 342 345 17 26 20 15 317 300 305 329 332 348 346 328 354 58 15 317 244 234 262 245 276 276 267 258 246 285 315 264 271 269 270 275 273 275 277 273 266
353 353 348 343 344 359 11 46 38 314 318 328 299 270 275 312 349 21 351 354 330 314 309 264 252 269 343 254 249 252 261 264 283 275 260 275 274 274 268 264 260 262 264 268 268
356 354 349 344 349 17 21 55 315 236 290 311 311 314 338 328 11 349 359 351 6 358 345 275 294 289 311 273 235 239 250 259 264 283 279 273 274 261 252 249 253 254 256 263 266
358 359 354 341 29 342 21 357 336 208 347 9 3 47 339 294 47 333 10 353 352 331 334 300 329 266 272 255 264 265 275 255 256 262 261 206 282 286 257 266 247 253 250 261 272
351 348 351 28 309 314 335 341 1 223 66 344 354 328 344 11 313 175 9 263 315 326 293 357 314 317 293 272 231 286 49 260 267 258 262 240 263 235 240 256 254 258 192 50 62
341 344 353 345 284 293 325 324 192 267 43 337 339 346 345 332 328 305 325 14 345 278 230 277 270 271 262 292 255 262 247 247 277 260 239 249 227 274 263 271 284 336 79 76 54
340 349 2 304 307 326 331 5 36 80 359 356 334 334 325 324 322 12 338 311 293 294 274 299 280 235 238 268 198 227 239 254 228 205 247 284 213 257 273 231 19 109 84 51 42
343 30 12 23 319 324 348 60 88 142 268 344 329 312 312 356 325 334 308 294 258 226 281 277 277 205 177 257 318 262 260 264 263 247 274 133 235 239 90 88 90 94 69 42 33
23 26 33 346 354 0 11 64 191 197 303 320 316 284 301 302 335 322 295 292 294 205 276 272 248 268 226 200 254 133 229 357 295 266 266 254 241 254 145 104 103 81 61 37 17
28 8 346 337 352 44 54 279 212 221 315 309 277 250 295 320 325 329 299 307 284 242 335 312 279 262 272 218 232 245 5 243 221 263 262 247 252 256 129 169 134 58 33 22 11
53 333 345 340 55 52 187 239 247 227 210 230 240 260 256 294 267 299 271 285 279 293 200 227 243 243 232 226 257 201 228 209 280 266 270 272 263 81 55 143 296 317 315 329 333
111 260 6 318 99 21 186 198 238 246 199 248 258 255 246 272 265 259 247 254 295 282 281 231 254 265 264 268 260 255 249 229 241 238 249 275 265 286 281 274 276 285 277 299 315
196 230 14 236 226 202 228 246 243 226 227 196 231 221 220 249 282 243 283 253 301 273 266 168 236 269 254 218 210 243 236 241 248 269 263 263 266 264 268 263 259 279 298 307 309
153 204 208 230 172 176 196 221 233 227 238 235 247 242 247 243 239 268 273 295 314 299 270 264 227 241 259 263 5 233 242 236 230 253 253 254 266 268 274 277 277 274 277 286 290
169 222 175 188 220 209 189 179 190 226 224 216 245 227 213 246 249 254 267 284 292 283 268 247 260 251 261 250 259 263 264 255 242 244 256 266 268 269 269 270 279 290 284 282 278
184 183 180 216 171 199 202 202 216 219 189 218 227 236 228 234 234 280 281 278 270 273 262 247 279 301 285 270 266 261 256 253 253 257 258 253 260 261 266 273 276 277 273 273 268
148 112 198 179 181 189 208 217 216 216 220 226 231 240 230 237 258 272 269 266 257 263 266 263 262 258 266 274 288 264 239 246 252 254 246 251 250 264 269 262 261 270 283 268 260